カタログに戻る

STARLINK-34312

運用中通信VLEO
NORAD 64711·PAYLOAD·🇺🇸 United States

打ち上げ Jun 28, 2025 から Vandenberg Space Force Base

Loading…

次のパス (今後24時間)

TLE

最新Source: CelesTrak SupGP

元期: Sep 15, 2026, 03:34 UTC

1 64711C 25142R   26258.14909722 -.00026189  00000+0 -91103-3 0  2582
2 64711  70.0013 194.9681 0003378 271.4205 130.8387 15.29591623    16

AllMySatでSTARLINK-34312をリアルタイム追跡

Download on the App Store